Back to catalog

SL-12 DEB

AliveHEO
NORAD 25684·DEBRIS·🇷🇺 Russia

Launched Dec 24, 1985 from Baikonur Cosmodrome

Loading…

Next Passes (next 24 hours)

TLE

FreshSource: Space-Track

Epoch: Sep 12, 2026, 22:47 UTC

1 25684U 85118X   26255.94944242  .00007460  00000-0  65721-2 0  9996
2 25684  64.6726 246.1486 5221609  28.4924 352.1562  5.10913539505755

Track SL-12 DEB in real time with AllMySat

Download on the App Store